Content
SEND FEEDBACK

Daily
Averages
Monthly
Summary
Canada

QUEBEC CITY, QUEBEC


Home > North America > Canada > Quebec
Elevation: 239 feet     Latitude: 46 48N     Longitude: 071 23W

WEATHER
 
SELECT A DAY
Number of Records: 192,044;   Date Range: 6/30/96 - 7/27/14
 
SHARE

PRINT THIS DATA

[ ← Previous Day ]
WEATHER ALMANAC - MAY 13, 2013
[ Next Day → ]
[ °C ]   °F
Weather ElementAverageHighLow
Temperature40.8 °F50 °F (3:00 pm)35.6 °F (11:38 pm)
Dewpoint25.4 °F37.4 °F (11:00 am) (7:00 pm)
Humidity73.9 %93 % (9:00 am)43 % (5:00 pm)
Wind Speed16 mph38 mph (2:00 pm)
Wind Gust43.7 mph (2:00 pm)
Weather ElementAverage
Visibility15.8 mi
Wind DirectionWSW (237.5 °)

Weather ElementTotal
Precipitation---
Heating Degree Days22.2 (Base 65)
Averaged from 40 records on May 13, 2013
WEATHER CONDITIONS BREAKOUT
WIND DIRECTION BREAKOUT
WEATHER BY HOUR - MAY 13, 2013
[ °C ]   °F
Local TimeTemperatureDewpointHumidityBarometerVisibilityWind DirectionWind SpeedGust SpeedPrecipitationEventsConditions
1:00 AM42.8 °F32.0 °F66 %29.64 in15.0 miSW (230°)9.2 mphMostly Cloudy
2:00 AM43.0 °F34.0 °F62 %29.63 inWSW (240°)8.1 mph
2:00 AM42.8 °F32.0 °F66 %29.64 in15.0 miSW (230°)15.0 mphMostly Cloudy
3:00 AM41.0 °F32.0 °F70 %29.64 in15.0 miSW (220°)16.1 mph23.0 mphMostly Cloudy
4:00 AM41.0 °F30.2 °F65 %29.64 in15.0 miSW (220°)15.0 mph24.2 mphMostly Cloudy
4:31 AM39.2 °F0.0 °F15.0 miWSW (240°)20.7 mph34.5 mphRainLight Rain Showers
5:00 AM39.0 °F32.0 °F67 %29.65 inWSW (240°)8.1 mph
5:00 AM39.2 °F28.4 °F65 %29.66 in15.0 miSW (230°)18.4 mph33.4 mphMostly Cloudy
6:00 AM37.4 °F30.2 °F75 %29.67 in25.0 miSSW (210°)18.4 mph24.2 mphMostly Cloudy
6:25 AM37.4 °F0.0 °F25.0 miSW (220°)23.0 mph29.9 mphRainLight Rain Showers
7:00 AM39.2 °F30.2 °F70 %29.68 in15.0 miSW (220°)12.7 mph23.0 mphRainLight Rain Showers
7:14 AM37.4 °F0.0 °F10.0 miSSW (210°)17.3 mph24.2 mphRain-SnowLight Rain Showers
7:38 AM37.4 °F0.0 °F3.0 miSW (220°)18.4 mph25.3 mphRain-SnowLight Rain Showers
8:00 AM37.0 °F34.0 °F84 %29.69 inSW (220°)9.2 mph
8:00 AM37.4 °F33.8 °F87 %29.70 in2.0 miSSW (210°)16.1 mph23.0 mphRain-SnowLight Rain Showers
9:00 AM37.4 °F35.6 °F93 %29.70 in3.0 miSW (220°)18.4 mphRainLight Rain Showers
10:00 AM39.2 °F35.6 °F87 %29.72 in15.0 miSW (230°)26.5 mph32.2 mphRainLight Rain Showers
11:00 AM43.0 °F37.0 °F72 %29.72 inSW (230°)11.5 mph
11:00 AM44.6 °F37.4 °F76 %29.73 in20.0 miSW (220°)21.9 mph34.5 mphMostly Cloudy
12:00 PM42.8 °F32.0 °F66 %29.74 in25.0 miSSW (210°)24.2 mph33.4 mphOvercast
1:00 PM44.6 °F33.8 °F66 %29.75 in20.0 miSW (220°)26.5 mph38.0 mphOvercast
2:00 PM47.0 °F37.0 °F59 %29.78 inWSW (240°)16.1 mph
2:00 PM48.2 °F35.6 °F62 %29.78 in25.0 miWSW (250°)38.0 mph43.7 mphMostly Cloudy
3:00 PM50.0 °F35.6 °F58 %29.79 in25.0 miSW (220°)33.4 mphMostly Cloudy
5:00 PM49.0 °F34.0 °F43 %29.81 inWSW (240°)16.1 mph
5:00 PM50.0 °F32.0 °F50 %29.83 in25.0 miWSW (240°)31.1 mph40.3 mphScattered Clouds
5:26 PM46.4 °F0.0 °F20.0 miWest (270°)27.6 mph35.7 mphRainLight Rain Showers
6:00 PM41.0 °F33.8 °F76 %29.88 in20.0 miWest (280°)23.0 mph40.3 mphRainLight Rain Showers
6:20 PM39.2 °F0.0 °F20.0 miWNW (290°)9.2 mphMostly Cloudy
6:30 PM41.0 °F0.0 °F15.0 miWest (280°)6.9 mphRainLight Rain Showers
7:00 PM41.0 °F37.4 °F87 %29.90 in15.0 miWest (270°)11.5 mphRainLight Rain Showers
7:36 PM37.4 °F0.0 °F3.0 miWest (270°)12.7 mphRainLight Rain Showers
8:00 PM38.0 °F36.0 °F89 %29.93 inWest (260°)8.1 mph
8:00 PM37.4 °F35.6 °F93 %29.93 in8.0 miWest (280°)9.2 mphRainLight Rain Showers
8:43 PM37.4 °F0.0 °F15.0 miSSW (210°)8.1 mphMostly Cloudy
9:00 PM37.4 °F35.6 °F93 %29.94 in15.0 miWSW (240°)9.2 mphScattered Clouds
10:00 PM37.4 °F35.6 °F93 %29.96 in15.0 miWSW (240°)6.9 mphMostly Cloudy
11:00 PM37.0 °F35.0 °F91 %29.96 inWSW (240°)3.5 mph
11:00 PM37.4 °F33.8 °F87 %29.97 in15.0 miWSW (250°)8.1 mphPartly Cloudy
11:38 PM35.6 °F0.0 °F15.0 miWSW (240°)5.8 mphPartly Cloudy
Hourly data recorded from CYQB, located miles away from Quebec City, Quebec







STORIES FROM OUR PARTNERS